www.pogodaiklimat.ru

Погода и климат >> Архив погоды >> Китай >> Beijing


АРХИВ ПОГОДЫ в Beijing

Время (UTC), дата Ветер
(напр.,м/с)
 
Видим.   Явления Облачность Т
(С)
Тd
(С)
f
(%)
Тe
(С)
Тes
(С)
Комфортность P
(гПа)
Po
(гПа)
Тmin
(С)
Tmax
(С)
R
(мм)
S
(см)
12 22.03 ЮВ 1 н/о мгла 10/10
[]
+12.3 -1.2 39 +13 +13 тепло 1019.5 1015.5
15 22.03 З 3 1500 м слабый дождь ?/? +9.8 +4.6 70 +8 +8 по сезону 1021.2 1021.0
18 22.03 ЮЗ 1 900 м морось {дождь} ?/? +8.1 +6.4 89 +7 +7 по сезону 1022.1 1018.1 +13.9 0.4
21 22.03 В 3 600 м слабый дождь ?/? +7.7 +6.6 93 +5 +5 по сезону 1022.4 1022.0
00 23.03 В 6 1000 м слабый дождь 10/10 1000 м
[]
+5.9 +3.6 85 +1 +1 по сезону 1024.9 1020.9 2
03 23.03 СВ 2 4000 м слабый дождь 10/10 1000 м
[]
+7.3 +2.0 69 +5 +5 по сезону 1025.9 1026.0
06 23.03 В 2 4600 м мгла {дождь} 10/10 600 м
[]
+7.7 +1.5 65 +6 +6 холодно 1025.0 1021.0 +5.3 0.7
09 23.03 В 2 4900 м мгла 10/10 1000 м
[]
+7.3 +1.8 68 +5 +5 холодно 1024.1 1024.0
12 23.03 СВ 1 4100 м мгла 10/10 1000 м
[]
+7.5 +1.8 67 +7 +7 по сезону 1025.4 1021.4
15 23.03 В 2 2500 м слабый дождь ?/? +6.8 +2.3 73 +5 +5 по сезону 1025.6 1026.0
18 23.03 З 1 2400 м слабый дождь {морось} н/о +3.9 +1.9 87 +2 +2 по сезону 1025.2 1021.2 +8.1 1
21 23.03 В 2 1300 м слабый дождь ?/? +1.8 +0.6 92 -2 -2 холодно 1024.5 1025.0
00 24.03 В 2 900 м слабый дождь 10/10 1000 м
[]
+1.6 +0.7 94 -2 -2 холодно 1024.5 1020.4 5
03 24.03 В 2 1700 м слабый дождь со снегом 10/10 1000 м
[]
+2.7 +1.7 93 -1 -1 очень
холодно
1024.2 1024.0
06 24.03 С 3 900 м слабый дождь {снег} 10/10 1000 м
[]
+3.4 +2.5 94 -1 -1 очень
холодно
1022.1 1018.0 +1.5 1
09 24.03 С 1 1400 м слабый дождь 10/10 1000 м
[]
+4.0 +2.8 92 +2 +2 очень
холодно
1021.5 1022.0
12 24.03 СВ 1 1600 м слабый дождь 10/10 1000 м
[]
+4.1 +2.9 92 +3 +3 холодно 1022.8 1018.7 1
15 24.03 В 1 1400 м дымка ?/? +3.3 +2.3 93 +2 +2 прохладно 1022.7 1023.0
18 24.03 Ю 1 800 м дымка н/о +2.0 +1.3 95 0 0 прохладно 1021.8 1017.7 +4.3
21 24.03 ЮЗ 1 1200 м дымка ?/? +1.1 +0.5 96 -1 -1 прохладно 1021.1 1021.0
00 25.03 З 2 2100 м дымка 9/9
[]
+3.6 +2.9 95 +1 +1 прохладно 1021.8 1017.7
03 25.03 С 3 10 км 9/9 1500 м
[]
+10.5 0.0 48 +9 +10 по сезону 1021.9 1022.0
06 25.03 С 3 25 км 9/9 1500 м
[]
+13.8 -2.6 32 +13 +14 по сезону 1020.0 1016.0 +0.7
09 25.03 СЗ 3 25 км {ливн. осадки} 9/9 2000 м
[]
+13.2 -4.0 30 +12 +12 по сезону 1019.3 1019.0
12 25.03 С 3 30 км {ливн. осадки} 4/4
[]
+11.5 -8.4 24 +10 +10 по сезону 1020.9 1016.9
15 25.03 С 3 30 км ?/? +10.3 -6.1 31 +9 +9 по сезону 1021.6 1022.0
18 25.03 С 4 30 км ?/? +8.9 -5.7 35 +7 +7 по сезону 1020.9 1016.9 +13.9
21 25.03 С 3 30 км ?/? +7.8 -7.1 34 +6 +6 по сезону 1020.3 1020.0
00 26.03 С 2 30 км 9/9 1500 м
[]
+8.6 -7.2 32 +8 +8 тепло 1021.4 1017.4
03 26.03 С 6 30 км 9/9
[]
+11.7 -6.7 27 +9 +10 по сезону 1021.8 1022.0
06 26.03 С 4 30 км 4/4 1000 м
[]
+13.5 -8.4 21 +12 +17 по сезону 1019.8 1015.8 +7.3
09 26.03 С 3 20 км 9/9 1500 м
[]
+12.6 -8.0 23 +12 +12 по сезону 1019.7 1020.0
12 26.03 З 2 27 км ясно +9.3 -2.6 43 +8 +8 по сезону 1021.1 1017.1
15 26.03 З 3 30 км ?/? +8.1 -2.2 48 +6 +6 по сезону 1021.7 1022.0
18 26.03 СЗ 1 28 км н/о +6.6 -2.5 52 +6 +6 по сезону 1022.1 1018.1 +14.4
21 26.03 С 3 30 км ?/? +7.1 -4.0 45 +5 +5 по сезону 1022.2 1022.0
00 27.03 С 3 30 км ясно +9.0 -6.4 33 +7 +10 по сезону 1023.9 1019.9
03 27.03 С 3 30 км ясно +12.1 -8.4 23 +11 +22 опасность
простуды
1024.2 1024.0
06 27.03 СЗ 3 30 км 5/5
[]
+14.6 -10.9 16 +14 +19 по сезону 1021.3 1017.3 +5.3
09 27.03 З 2 30 км 6/6
[]
+14.7 -10.9 16 +15 +15 тепло 1019.9 1020.0
12 27.03 ЮЗ 2 25 км 9/9
[]
+11.8 -9.8 21 +11 +11 по сезону 1020.8 1016.8
15 27.03 Ю 2 12 км ?/? +10.6 -9.1 24 +10 +10 по сезону 1021.8 1022.0
18 27.03 Ю 2 10 км н/о +8.4 -3.8 42 +7 +7 по сезону 1021.7 1017.7 +15.3
21 27.03 Ю 1 7000 м мгла ?/? +5.7 -2.4 56 +5 +5 по сезону 1021.1 1021.0
00 28.03 З 2 7000 м мгла 9/9
[]
+7.5 +0.9 63 +6 +6 по сезону 1022.3 1018.3
03 28.03 З 3 10 км 9/9
[]
+12.5 +2.1 49 +11 +12 по сезону 1022.3 1022.0
06 28.03 Ю 5 15 км 9/9
[]
+15.3 -1.7 31 +14 +15 по сезону 1019.7 1015.8 +3.8
09 28.03 ЮЗ 5 13 км 9/9
[]
+15.4 -0.4 34 +14 +14 тепло 1018.4 1018.0
12 28.03 ЮЗ 3 8000 м 3/3
[]
+12.1 +2.0 50 +11 +11 по сезону 1019.9 1015.9
15 28.03 ЮЗ 2 4400 м мгла ?/? +9.8 +2.9 62 +9 +9 по сезону 1020.4 1020.0
18 28.03 ЮЗ 2 2500 м мгла ?/? +8.6 +3.6 71 +7 +7 по сезону 1020.5 1016.6 +16.5
21 28.03 Ю 1 1500 м мгла ?/? +5.3 +3.0 85 +4 +4 по сезону 1020.0 1020.0
00 29.03 З 1 1700 м мгла 9/9
[]
+7.1 +3.9 80 +6 +7 по сезону 1020.9 1016.9
03 29.03 В 1 2200 м мгла 9/9
[]
+12.9 +4.8 58 +13 +15 тепло 1020.5 1021.0
06 29.03 Ю 3 3800 м мгла 9/9
[]
+18.1 +3.9 39 +18 +19 тепло 1017.5 1013.6 +5.2
09 29.03 ЮЗ 4 6000 м мгла ясно +18.9 +2.3 33 +19 +20 тепло 1016.7 1017.0

 

Местоположение метеостанции Beijing (Китай): широта 39.93 долгота 116.28 высота над уровнем моря 55 м.

В архиве по умолчанию представлена погода в Beijing за последнюю неделю. Архивные данные за месяц целиком и за предыдущие месяцы, начиная с января 2011 года, Вы можете получить, выбрав интересующий диапазон дат из раскрывающегося списка и нажав кнопку "Ввод!".

Внимание! Время в таблицах - всемирное. Для получения местного времени необходимо прибавить поправку, которая в Beijing равна 8 ч.

Смотрите также архив погоды в соседних городах и на ближайших метеорологических станциях:

Погода в Huailai (Китай) (84 км)
Погода в Tianjin (Китай) (119 км)
Погода в Baoding (Китай) (135 км)
Погода в Fengning (Китай) (146 км)
Погода в Yu Xian (Китай) (147 км)
Погода в Zhangjiakou (Китай) (152 км)
Погода в Tangshan (Китай) (162 км)
Погода в Chengde (Китай) (183 км)
Погода в Potou (Китай) (207 км)
Погода в Leting (Китай) (231 км)

Пояснения к столбцам:

Ветер - указаны скорость ветра в м/с - средняя за 10 мин, порывы в срок и между сроками (в фигурных скобках) и направление, откуда дует ветер: С - северный, СВ - северо-восточный, В - восточный, ЮВ - юго-восточный, Ю - южный, ЮЗ - юго-западный, З - западный, СЗ - северо-западный.
Видимость - горизонтальная дальность видимости в метрах или километрах. При видимости от 1 до 10 км при отсутствии осадков обычно наблюдается дымка, при ухудшении видимости до 1 км и менее - туман. В сухую погоду видимость может ухудшаться дымом, пылью или мглою.
Явления - указаны атмосферные явления, наблюдавшиеся в срок или в последний час перед сроком; фигурными скобками обозначены явления, наблюдавшиеся между сроками (за 1-3 часа до срока); квадратными скобками обозначены град или гололедные отложения с указанием их диаметра в мм.
Облачность - указаны через наклонную черту общая и нижняя облачность в баллах и высота нижней границы облаков в метрах; квадратными скобками обозначены формы облаков: Ci - перистые, Cs - перисто-слоистые, Cc - перисто-кучевые, Ac - высококучевые, As - высокослоистые, Sc - слоисто-кучевые, Ns - слоисто-дождевые, Cu - кучевые, Cb - кучево-дождевые. Подробнее классификацию облаков см. в Атласе облаков (PDF).
T - Температура воздуха - температура, измеренная на высоте 2 м над землей.
Td - Температура точки росы - температура, при понижении до которой содержащийся в воздухе водяной пар достигнет насыщения.
f - Относительная влажность воздуха - влажноcть воздуха, измеренная на высоте 2 м над землей.
Te - Эффективная температура - температура, которую ощущает одетый по сезону человек в тени. Характеристика душности погоды. При расчете учитывается влияние влажности воздуха и скорости ветра на теплоощущения человека.
Tes - Эффективная температура на солнце - температура, которую ощущает человек, с поправкой на солнечный нагрев. Характеристика знойности погоды. Зависит от высоты солнца над горизонтом, облачности и скорости ветра. Ночью, в пасмурную погоду, а также при ветре 12 м/с и более поправка равна нулю.
P - Атмосферное давление - приведенное к уровню моря атмосферное давление.
Po - Атмосферное давление - измеренное на уровне метеостанции атмосферное давление.
Tmin - Минимальная температура - минимум температуры воздуха на высоте 2 м над землей.
Tmax - Максимальная температура - максимум температуры воздуха на высоте 2 м над землей.
R - Количество осадков - Количество выпавших осадков, мм. При наведении курсора мыши на число - период времени, за который выпало указанное количество осадков.
S - Снежный покров - Высота снежного покрова, см. При наведении курсора мыши на число - состояние снежного покрова и степень покрытия местности в баллах.